Tous vos exploits sur  Logo Planète Marathon le site 100% Marathon

Marathon de Louisiane (USA)              Donnez votre avis sur l'édition 2016

Le 17/01/2016 - 5ème édition - 1135 arrivants.                                                       

Clmt. Temps Nom Prénom Club Organisme Catégorie
1 2:23:47 Ordway Josh (USA) M3539 (+)
2 2:28:34 Bellamy Gwyn M3034 (+)
3 2:33:21 Miller Zak M2529 (+)
4 2:52:04 Bonvillain Frederic (FRA) M4044 (+)
5 2:52:53 Trimm Logan M2529 (+)
6 2:53:07 Shahid Kameron M3034 (+)
7 2:53:49 Maas Benjamin M2024 (+)
8 2:56:59 Gomez Rod M2529 (+)
9 2:57:06 Newman Rickard M3539 (+)
10 2:58:01 Amirkhanian Yuri M4044 (+)
11 2:58:29 Rose Andrew M4044 (+)
12 2:59:40 Odinet Chris CLYDE (+)
13 3:00:15 Macneill Randy M5054 (+)
14 3:00:47 Chauvin Joshua CLYDE (+)
15 3:01:53 Fall Lawson M3539 (+)
16 3:02:41 Post Brian M3539 (+)
17 3:02:42 Tucker Alex M3539 (+)
18 3:03:02 Madore Patrick M2529 (+)
19 3:03:04 Thiede Brian M2529 (+)
20 3:03:35 Speyrer Sebastian M3034 (+)
21 3:04:07 Bucci Daniel M3034 (+)
22 3:05:12 Cheek Jason M3034 (+)
23 3:05:59 Cormier Ryan M2529 (+)
24 3:06:27 Adams Ii Byron M5054 (+)
25 3:06:33 Ash Phil M4549 (+)
26 3:06:47 Giles Michael M2529 (+)
27 3:06:58 Rauschenberg Dane M3539 (+)
28 3:07:12 Bourg Cory M3539 (+)
29 3:07:58 Ishaq Amany (USA) F2529 (+)
30 3:08:13 Parker Lyle M5559 (+)
31 3:09:00 Melancon Ed M4044 (+)
32 3:09:03 Moyes Howard M5054 (+)
33 3:09:13 Shaw Alyssa F3539 (+)
34 3:10:09 Chauvin Jason M3034 (+)
35 3:10:44 Knabe Adam M3034 (+)
36 3:10:57 Zuelsdorf Mark M3034 (+)
37 3:11:13 Dessauer Dave M5559 (+)
38 3:11:54 Dunn Michael M4549 (+)
39 3:11:58 Sosh Brittlyn F2529 (+)
40 3:12:26 Lea Scott M3034 (+)
41 3:12:46 Mcalhaney Jim M4549 (+)
42 3:12:53 Scott Jamie F3539 (+)
43 3:13:04 Haser Colin M2529 (+)
44 3:14:01 Jones Chase M1619 (+)
45 3:14:15 Karst Kyle M2529 (+)
46 3:14:41 Dugas Laurin M3539 (+)
47 3:14:42 Brahmi Tarik M3539 (+)
48 3:14:56 Alello Troy M4549 (+)
49 3:15:17 Brinkruff Claudia F3539 (+)
50 3:15:21 Early Trent M2529 (+)
51 3:15:29 Martin Spencer M4549 (+)
52 3:15:37 Facaeanu Cosmin M4549 (+)
53 3:15:42 Schroeder Dylan M2529 (+)
54 3:15:43 Pritchett William M5054 (+)
55 3:15:54 Leber Andrea F5054 (+)
56 3:16:23 Haile Andrew M4044 (+)
57 3:17:23 Chaffee Jess F3034 (+)
58 3:17:45 Thomas Matthew M4044 (+)
59 3:18:13 Fladie Lindsey F3034 (+)
60 3:18:23 Lynn Quinten M4044 (+)
61 3:18:37 Crain Matt M4549 (+)
62 3:18:39 Charlet Jordan M4044 (+)
63 3:19:01 Turnovskiy Mikhail M3034 (+)
64 3:19:47 Scandurro Dewey M4549 (+)
65 3:20:13 Harrison Kelvin M3539 (+)
66 3:20:47 Beann Haley F3539 (+)
67 3:20:52 Vaughn Jack M4044 (+)
68 3:20:57 Shelton Kaleb M2024 (+)
69 3:21:09 Copeland Iii Charles M4044 (+)
70 3:21:40 Gisclaire George M4549 (+)
71 3:21:48 Theriot Jeremy M3539 (+)
72 3:22:06 Mccrary Patrick M3539 (+)
73 3:22:14 Phillips Katherine F3539 (+)
74 3:22:25 Livaudais Frank M4044 (+)
75 3:22:26 Rainier Jason M3034 (+)
76 3:22:30 Eddards Brandon M3539 (+)
77 3:22:32 Gill Marc M3539 (+)
78 3:22:47 Carr Pamela F4044 (+)
79 3:23:25 Lamb Brian M3539 (+)
80 3:23:32 Amoroso Hannah F3539 (+)
81 3:23:43 Lang Edward M5054 (+)
82 3:23:45 Crow Cameron M3034 (+)
83 3:23:52 Dempsey David CLYDE (+)
84 3:23:54 White Ashton F2529 (+)
85 3:23:54 Sutton Drew M3034 (+)
86 3:23:57 Davis Amanda F3034 (+)
87 3:24:29 Stanley Prince M4044 (+)
88 3:25:04 Ranger Craig M3034 (+)
89 3:25:07 Franklin Kaleb M3034 (+)
90 3:25:08 Martin Andrew M3539 (+)
91 3:25:27 Balser Robert M5054 (+)
92 3:25:42 Boyer Jean-sebastien M3539 (+)
93 3:26:11 Roussel Ross M5054 (+)
94 3:26:11 Davis Charles M5054 (+)
95 3:26:29 Cothern Chad M3539 (+)
96 3:26:39 De Sa Marcos M3539 (+)
97 3:26:42 Barnett Bryan M3034 (+)
98 3:27:31 Bouldry John M3539 (+)
99 3:27:35 Austin Jon M5559 (+)
100 3:27:40 Lichenstein Casey F3034 (+)
101 3:27:53 Swan Kevin M3539 (+)
102 3:28:06 Bartholomew Luciana F3034 (+)
103 3:28:22 Lafleur Amanda F3034 (+)
104 3:28:27 Miller Art M4549 (+)
105 3:28:28 Centanni Amy F3034 (+)
106 3:28:30 Scott Patrick M4549 (+)
107 3:28:31 Levine Brian M3034 (+)
108 3:28:32 Elfert Jeanne F3034 (+)
109 3:28:44 Howe Daniel M3034 (+)
110 3:28:59 Batson Jim M5054 (+)
111 3:29:02 Thibodeaux Mark M3539 (+)
112 3:29:34 Mehall John M2024 (+)
113 3:30:58 Kish Brian M4549 (+)
114 3:31:01 Johnson Clarence M3539 (+)
115 3:31:06 Martin John M5054 (+)
116 3:31:06 Patrick Henry M5559 (+)
117 3:31:31 Treadaway Scott M4044 (+)
118 3:31:33 Ellis Sarah F2529 (+)
119 3:31:37 Higgins Walker M3034 (+)
120 3:32:26 Macmullin Michael M5559 (+)
121 3:32:39 Perry Emily F2529 (+)
122 3:32:55 Diliberto Jena F3539 (+)
123 3:33:07 Rourke Michael M3034 (+)
124 3:33:29 Guay Brookes M3539 (+)
125 3:33:42 Helm Kevin M4044 (+)
126 3:33:46 Dorr Robert M6064 (+)
127 3:33:48 Baldwin Kellie F2529 (+)
128 3:33:52 Mcmahon Neal M5054 (+)
129 3:33:56 Haser Cortney F2529 (+)
130 3:33:58 Brinkruff James M4044 (+)
131 3:34:02 Rodrigo Thivanka M4044 (+)
132 3:34:12 Busekist Adrien F3539 (+)
133 3:34:25 Allen Mark M5054 (+)
134 3:34:27 Spooner David M4549 (+)
135 3:34:57 Sperry Bryan M5054 (+)
136 3:35:08 Williams David M3539 (+)
137 3:35:18 Pitman Mike M5054 (+)
138 3:35:21 Leber David M2024 (+)
139 3:35:39 Pilgrim Beaux M4549 (+)
140 3:35:48 Johnston Allen M5559 (+)
141 3:36:00 Garcia-gardner Anitra F3539 (+)
142 3:36:00 Mangin Chris M4044 (+)
143 3:36:42 Cave Nicki F4044 (+)
144 3:36:45 Royalty Matt M3539 (+)
145 3:37:54 Orth Joseph M3034 (+)
146 3:37:54 Evans Shamus F15UN (+)
147 3:37:54 Evans Shaun M3539 (+)
148 3:37:55 Johnson Kristin F2529 (+)
149 3:38:09 Ireland Jared M4044 (+)
150 3:38:12 Howell Jennifer F3034 (+)
151 3:39:27 Dobson Susan F4044 (+)
152 3:39:39 Register Bryan M4549 (+)
153 3:39:44 Borders Sean M4044 (+)
154 3:40:24 Schooley Randi F3034 (+)
155 3:41:13 Norcross Jon M5559 (+)
156 3:41:14 Berkemeyer Kenny M4549 (+)
157 3:41:14 Orr Melissa F3539 (+)
158 3:41:38 Kellgren Samantha F3034 (+)
159 3:41:49 Paulsen Greg M5054 (+)
160 3:41:59 Macnabb Erin F3034 (+)
161 3:42:25 Crow Kelley M3034 (+)
162 3:42:28 Doring Patrick M3034 (+)
163 3:42:31 Santiago Karen F3034 (+)
164 3:42:32 Domino Abby F3539 (+)
165 3:42:35 Huff Crystal F3539 (+)
166 3:42:37 Tucker Brad M3539 (+)
167 3:43:22 Archuleta Jenny F2529 (+)
168 3:43:31 Bentley-condit Vicki F5559 (+)
169 3:43:35 Hills Gwen F3034 (+)
170 3:43:39 Prather Stephen M4044 (+)
171 3:43:42 Erbesti Adrienne F2024 (+)
172 3:44:02 Karner Melissa F3034 (+)
173 3:44:06 Miller Jason M4044 (+)
174 3:44:08 Smith Mary F4044 (+)
175 3:44:14 Reynolds Patrick M3539 (+)
176 3:44:15 Hogg Teresa F4044 (+)
177 3:44:16 Irish John M3539 (+)
178 3:44:23 Booth Sarah F2024 (+)
179 3:44:25 Brooks John M3539 (+)
180 3:44:33 Peterson Stephanie F3539 (+)
181 3:44:35 Trenner David M5054 (+)
182 3:44:41 Herren Tiffany F3034 (+)
183 3:44:41 Jensen Eric M5054 (+)
184 3:44:44 Schwartz Kimberly F2529 (+)
185 3:44:45 Beard Darryl M4044 (+)
186 3:44:45 Ferachi Kyle M3539 (+)
187 3:44:50 Kage Dan M5559 (+)
188 3:44:53 Cohn Brian M3539 (+)
189 3:45:05 Miles Trent M2529 (+)
190 3:45:14 Clark Neil M4044 (+)
191 3:45:21 Maxwell William M3034 (+)
192 3:45:25 Luers Kiara F2024 (+)
193 3:45:36 Smith Kevin M4044 (+)
194 3:45:40 Morgan Monica F3034 (+)
195 3:45:51 Mount Brett M3034 (+)
196 3:45:53 Lanford Jane F6064 (+)
197 3:46:02 Perri Thomas M5054 (+)
198 3:46:04 Van Houten Hunter M2529 (+)
199 3:46:08 Sidloski Myron M6569 (+)
200 3:46:32 Munson Courtney M F3034 (+)
201 3:46:33 Tamor Mathieu M3034 (+)
202 3:46:45 Weltman Shirley F4044 (+)
203 3:46:51 Rech Dave M5054 (+)
204 3:46:58 Mcgehee Andrea F4549 (+)
205 3:46:59 Hill Deidre F3539 (+)
206 3:47:03 Guidry Blake M3034 (+)
207 3:47:07 Livingston Jason CLYDE (+)
208 3:47:07 Mcguffee Dane CLYDE (+)
209 3:47:38 Harrill Teresa F4044 (+)
210 3:47:59 Stevens Tyler M2529 (+)
211 3:47:59 Walker Billy M6064 (+)
212 3:48:00 Alvin Amy F2529 (+)
213 3:48:20 Mendolla Joseph M4549 (+)
214 3:48:24 Greer Gaines F3034 (+)
215 3:48:30 Carter Joel M5054 (+)
216 3:48:31 Richardson Mark M4044 (+)
217 3:48:42 Bowden Robert M4044 (+)
218 3:48:42 Fleming Thomas M5559 (+)
219 3:48:48 Thom Scott M3539 (+)
220 3:48:50 Engelhardt Kurt M5559 (+)
221 3:48:53 Cooley Dakota CLYDE (+)
222 3:49:06 Guillory Sarah F3539 (+)
223 3:49:08 Pescosolido Terry M6064 (+)
224 3:49:09 Roath Chris M2529 (+)
225 3:49:14 Fontenot Danielle F4549 (+)
226 3:49:18 Pesson Carter M2024 (+)
227 3:49:32 Wu Robert M5559 (+)
228 3:49:32 Manuel Marcus M4044 (+)
229 3:49:32 Currier Clay M3034 (+)
230 3:49:34 Foster Drake M2529 (+)
231 3:49:41 Crafton-stiver Rachel F2529 (+)
232 3:49:41 Guidry Bennett M3034 (+)
233 3:49:52 Thibodeaux Angela F4044 (+)
234 3:50:07 Nichol Allison F3034 (+)
235 3:50:16 Talley Sabina F3539 (+)
236 3:50:28 Holcomb Evan M3034 (+)
237 3:50:29 Mayfield Edward M3539 (+)
238 3:50:36 Orihuela Tomas M4549 (+)
239 3:50:45 Trouard Corey M3539 (+)
240 3:50:53 Bails Kelly F4044 (+)
241 3:51:08 Veillon Dezza F3034 (+)
242 3:51:22 Strobel Lisa F4044 (+)
243 3:51:26 Hornberger Greg M3034 (+)
244 3:51:29 Wareck Kristin F3034 (+)
245 3:51:32 Ketchum Emily F4044 (+)
246 3:51:45 Townsend Drew M2024 (+)
247 3:51:53 Williams-davis Tara F3539 (+)
248 3:51:59 Merrill Jesse M3539 (+)
249 3:51:59 Cox Bryan M4044 (+)
250 3:52:01 Kinsey Matthew M2024 (+)
251 3:52:03 Pittman Lori F4549 (+)
252 3:52:19 Dornan Hester F2529 (+)
253 3:52:25 Flores Remick Anna F2529 (+)
254 3:52:30 Stowell Samuel M2024 (+)
255 3:52:43 Ebrahem Mina M2529 (+)
256 3:52:58 Raven Kathleen F3539 (+)
257 3:53:29 Taylor Vance M6569 (+)
258 3:53:39 Green David M4549 (+)
259 3:53:41 Albarado Colby M4044 (+)
260 3:53:41 Burke Lou M3539 (+)
261 3:53:43 Bland Chris M6064 (+)
262 3:53:55 Price Heather F4044 (+)
263 3:54:00 Roberts Ray M4549 (+)
264 3:54:03 Olgin Joe M2529 (+)
265 3:54:17 Weldon Stephanie F4549 (+)
266 3:54:21 Nieman Nathan M3034 (+)
267 3:54:27 Wnuk Kory M4549 (+)
268 3:54:32 Boudreaux Aaron M2529 (+)
269 3:54:43 Cash Jason M3034 (+)
270 3:54:48 Hapgood Catherine F4044 (+)
271 3:54:59 Newton Amy F4044 (+)
272 3:55:00 Rourke Daniel M2529 (+)
273 3:55:07 Ditcher Kamille F2529 (+)
274 3:55:08 Grove Jim M5559 (+)
275 3:55:16 Arthur Paul M2024 (+)
276 3:55:20 Tamplin Elizabeth F4549 (+)
277 3:55:28 Dufour Tim M5559 (+)
278 3:55:29 Porter Scott M5559 (+)
279 3:55:36 Thompson Greg M5559 (+)
280 3:55:38 Barnett Kim F5054 (+)
281 3:55:44 Fazio Frank M2529 (+)
282 3:55:56 Goff Laurie F4549 (+)
283 3:55:56 Dean Kelly F3034 (+)
284 3:55:59 Morton James M5559 (+)
285 3:56:02 Bacarisse Chris M4044 (+)
286 3:56:07 Lithgoe Brandon M3539 (+)
287 3:56:10 Fanguy David M3539 (+)
288 3:56:22 Leach Jim M4549 (+)
289 3:56:55 Roux Katie F2024 (+)
290 3:57:02 Rhodes Andrew M3539 (+)
291 3:57:05 Gaines Jeff M3034 (+)
292 3:57:07 Euggino Travis CLYDE (+)
293 3:57:11 Wetekamm Kale M2529 (+)
294 3:57:17 Mcgehee Michael M5054 (+)
295 3:57:20 Taylor Joanne F4044 (+)
296 3:57:33 Gibbs Allison F3034 (+)
297 3:57:33 Richards Amy F3034 (+)
298 3:57:37 Hoen Rudi M2529 (+)
299 3:57:38 Windham Jason M3539 (+)
300 3:57:45 Mcmanus Cathy F4549 (+)
301 3:57:46 Werner Steve M4549 (+)
302 3:57:46 Moreau Aimee F3034 (+)
303 3:57:52 Maybee Sue F5054 (+)
304 3:57:52 Holland Lynn M5559 (+)
305 3:57:52 Higgins Jaimie F3539 (+)
306 3:58:01 Monk Jason M3034 (+)
307 3:58:07 Mclelland Scott M4549 (+)
308 3:58:09 Dugas Tony M3539 (+)
309 3:58:13 Henley Kenniann F4044 (+)
310 3:58:19 Dominey Doug M5559 (+)
311 3:58:27 Puglis Terry M6064 (+)
312 3:58:28 Ingebrigtsen Ashleigh F3034 (+)
313 3:58:30 Rushing Bill CLYDE (+)
314 3:58:34 Peth Steve M5559 (+)
315 3:58:36 Sutphin Allison F4044 (+)
316 3:58:36 Falbo Vanessa F4044 (+)
317 3:58:37 Godeaux Chrissy F3539 (+)
318 3:58:47 Cochran Lyndsey F3539 (+)
319 3:58:51 Walker Doug M6064 (+)
320 3:58:53 Thomas Dean M4549 (+)
321 3:58:57 Ralph Andrew M4044 (+)
322 3:59:00 Johnston Shelly F3539 (+)
323 3:59:02 Kostova Dilyana F3034 (+)
324 3:59:03 Breaux Bryan M3539 (+)
325 3:59:08 Birch Traci F4044 (+)
326 3:59:13 Walker Wade M4549 (+)
327 3:59:21 Raymond Joe M2529 (+)
328 3:59:21 Zeigler Heather F3539 (+)
329 3:59:23 Beagle Doug M6569 (+)
330 3:59:30 Curry Hannah F3034 (+)
331 3:59:47 Vietti Ginny F3539 (+)
332 3:59:54 Cronan Nick M3539 (+)
333 3:59:57 King Nancy F5054 (+)
334 4:00:03 Morris Rick M5054 (+)
335 4:00:05 Mauterer Arthur CLYDE (+)
336 4:00:06 Shores Ann Rene F2529 (+)
337 4:00:08 Baker Ernest M4044 (+)
338 4:00:13 Hebert-sweeny Rebecca F5559 (+)
339 4:00:15 Thomas Rachel F2024 (+)
340 4:00:21 Boshaw Kimberly F4044 (+)
341 4:00:31 Reid Reggie M5054 (+)
342 4:00:36 O'brien Patrick M2024 (+)
343 4:00:54 Lindsay Darla F4549 (+)
344 4:00:54 Holdiness Heather F3034 (+)
345 4:01:25 Vornkahl Michael M3034 (+)
346 4:01:31 Mayfield Allison F3539 (+)
347 4:01:42 Dupuis Mary F3539 (+)
348 4:01:45 Holtzclaw Betsy F2529 (+)
349 4:01:55 Story Rick M6064 (+)
350 4:01:57 Mcfarland Scott CLYDE (+)
351 4:01:58 Power Ryan M2024 (+)
352 4:01:58 Ledoux Clare F2024 (+)
353 4:02:01 Tyler Michael M2529 (+)
354 4:02:12 Lorenz Brian CLYDE (+)
355 4:02:15 Smith Jessica F3539 (+)
356 4:02:18 Shortt Scott M3539 (+)
357 4:02:21 Woodward Max M4549 (+)
358 4:02:33 Beech Kristi F4044 (+)
359 4:02:34 Carmon Amanda F4044 (+)
360 4:02:37 Stevenson Stephanie F4044 (+)
361 4:02:45 Davis Whitney M3034 (+)
362 4:02:56 Evans Jeffery M3539 (+)
363 4:03:25 Woten Joe M3034 (+)
364 4:03:28 Alello Michael CLYDE (+)
365 4:04:19 Baum Andrea F2529 (+)
366 4:04:23 Bryant John M5054 (+)
367 4:04:34 Rovina Alan M4549 (+)
368 4:05:04 Ulrich Patty F4549 (+)
369 4:05:09 Dean Roy M3539 (+)
370 4:05:16 Pizzolato Mury Mischa F4549 (+)
371 4:05:21 Goudeau Brent M4549 (+)
372 4:05:34 Compton Vernon M5559 (+)
373 4:05:50 Campisi Michele F4044 (+)
374 4:05:52 Schooley Jr. Graham M4044 (+)
375 4:06:47 Guffey Kevin M4044 (+)
376 4:06:58 Dickerson Law M3034 (+)
377 4:07:17 Nelson David CLYDE (+)
378 4:07:21 Houle Vincent M3034 (+)
379 4:07:39 Vampran Pamela F5054 (+)
380 4:07:39 Klein Nick M3034 (+)
381 4:07:40 Ma Vincent M4549 (+)
382 4:07:51 Hughes Kerry F3539 (+)
383 4:07:54 Sullivan Theresa F5559 (+)
384 4:08:01 Briley Richard M3034 (+)
385 4:08:07 Aidt Mamta F3539 (+)
386 4:08:13 Lopez Jessica F3034 (+)
387 4:08:22 Herwehe William M5559 (+)
388 4:08:29 Mcmillen Sandee F4549 (+)
389 4:08:33 Boudreau-ninkov Marie F5054 (+)
390 4:08:35 Peck Dionna F2024 (+)
391 4:08:39 Mulholland Daniel M5559 (+)
392 4:08:45 Mckenzie Anne F4044 (+)
393 4:08:52 Plaisance Lisa F3539 (+)
394 4:09:06 Sparks Shelley F4044 (+)
395 4:10:09 Stead Laura F3034 (+)
396 4:10:14 Hacker Ariel F2529 (+)
397 4:10:17 Urban Mark M4044 (+)
398 4:10:23 Bostick Troy M5054 (+)
399 4:10:32 Connor Rebecca F4044 (+)
400 4:10:37 Canady Lidya F3034 (+)
401 4:10:39 Rohner Kip CLYDE (+)
402 4:10:41 West Charles CLYDE (+)
403 4:10:55 Toups Chad M3539 (+)
404 4:11:09 Zeringue Launa F4549 (+)
405 4:11:23 Macnabb Pat F6064 (+)
406 4:11:35 Reed David M4044 (+)
407 4:11:35 Warner Lanie F1619 (+)
408 4:11:36 Cornwell Keith M2529 (+)
409 4:11:37 Mendoza Elizabeth F3034 (+)
410 4:11:42 Hutchinson Kris M4044 (+)
411 4:11:43 Scudiere Charles M2529 (+)
412 4:11:57 Huizinga Meribeth F3539 (+)
413 4:11:59 Tague Benjamin CLYDE (+)
414 4:12:01 Ainsworth Clinton M4044 (+)
415 4:12:08 Fortin Corinne F2024 (+)
416 4:12:18 Reyes Hector M3034 (+)
417 4:12:20 Murtagh Randall Mynette F3539 (+)
418 4:12:25 Thomassie Jonathan M3539 (+)
419 4:12:25 Blanchard Brent M4044 (+)
420 4:12:27 Diedrich Ellen F3539 (+)
421 4:12:28 Hamel Dominique F5054 (+)
422 4:12:29 Elrod Rod M6064 (+)
423 4:12:45 Gresham Nathan M3034 (+)
424 4:12:52 Draughn Christy F4044 (+)
425 4:12:56 Johnson Ryan M4044 (+)
426 4:13:00 Grove Owen M3034 (+)
427 4:13:00 Quigley Jeff M5559 (+)
428 4:13:14 Smith Mia F4549 (+)
429 4:13:22 Doomes Edward CLYDE (+)
430 4:13:30 Eidsmoe Eric M5054 (+)
431 4:13:52 Castillo Amanda F3539 (+)
432 4:14:02 Paganuzzi Victor M4549 (+)
433 4:14:04 Morrison Mark M4549 (+)
434 4:14:09 Unglesby Emma Kate - (+)
435 4:14:10 Cooper Todd M2529 (+)
436 4:14:14 Cardow Jim M6064 (+)
437 4:14:15 Seher Sabrina F3539 (+)
438 4:14:15 Broadbent Sean M4549 (+)
439 4:14:18 Bibeau Diana F5559 (+)
440 4:14:25 Pinero Amy F4044 (+)
441 4:14:39 Zywicke Gwendolyn F4549 (+)
442 4:14:50 Petersen Erin F2024 (+)
443 4:15:06 Mogenson Pax M4044 (+)
444 4:15:06 Slay Kristen F3539 (+)
445 4:15:08 Park Eugene M2529 (+)
446 4:15:11 Brophy Juliet F3539 (+)
447 4:15:12 Castellon Regina F3034 (+)
448 4:15:16 Aucoin Jeff M4044 (+)
449 4:15:21 Jennings Liane F4044 (+)
450 4:15:22 Larkin Robyn F3539 (+)
451 4:15:29 Kiel Brian M4549 (+)
452 4:15:32 Maggio Christopher M2529 (+)
453 4:15:47 Faciane Brina F3539 (+)
454 4:15:48 Slaughter Julian CLYDE (+)
455 4:16:00 Crutchfiek Chris M3539 (+)
456 4:16:15 Panagakos Fotinos CLYDE (+)
457 4:16:28 Whitlow Christine F4044 (+)
458 4:16:34 Blanchard Cissy F4549 (+)
459 4:16:45 Wofford Koby F2529 (+)
460 4:17:08 Ostheimer William M3539 (+)
461 4:17:09 Pocorello Anthony M4549 (+)
462 4:17:10 Nickel Ashley F3034 (+)
463 4:17:16 Mostert Ric M6064 (+)
464 4:17:20 Mhire Jeremy M3539 (+)
465 4:17:23 Musso Mark M4549 (+)
466 4:17:23 Compson Chuck CLYDE (+)
467 4:17:24 Fontenot Alexander M15UN (+)
468 4:17:25 Lopez Max M2529 (+)
469 4:17:30 Rhode Jr Cyrus M7074 (+)
470 4:17:51 Nicolosi Chris M5054 (+)
471 4:17:51 Nicolosi Chloe F2024 (+)
472 4:17:52 Lekens Larry M6569 (+)
473 4:17:53 April Chrissy F4044 (+)
474 4:17:53 Jones Christian M2024 (+)
475 4:18:05 Sexton Richard M6569 (+)
476 4:18:09 Beagle Jean F2529 (+)
477 4:18:24 Hageman Amy F3034 (+)
478 4:18:25 Guindon Jean-philippe M4044 (+)
479 4:18:33 White Trey M3539 (+)
480 4:18:34 Briley Bill M5054 (+)
481 4:18:34 Briley Julia F2024 (+)
482 4:18:35 Crotty Jess F2529 (+)
483 4:18:36 Riddle Benjamin M3034 (+)
484 4:18:36 Pickering Tj M2529 (+)
485 4:18:39 Rancourt Benoit M6569 (+)
486 4:18:39 Demman Dena F5559 (+)
487 4:18:40 Finkston Neil M4549 (+)
488 4:19:14 Guidry Louis M5054 (+)
489 4:19:14 Soileau Leboeuf Lauren F3539 (+)
490 4:19:14 Ivey Catina F4044 (+)
491 4:19:16 Craig Brian M3539 (+)
492 4:19:17 Lunsford Diana F4549 (+)
493 4:19:42 Pham Brooke F3539 (+)
494 4:19:45 Henderson Adron M4044 (+)
495 4:19:46 Thomas Trevor M2529 (+)
496 4:20:13 Aucoin Vanessa F5054 (+)
497 4:20:18 Jursic Brankp M5559 (+)
498 4:20:29 Babin Jarrod M4044 (+)
499 4:20:30 Krebsbach Patti F5054 (+)
500 4:20:33 Trevino Adriana F4044 (+)
501 4:20:48 Thomas Steve M5559 (+)
502 4:21:12 Gaudet Adrienne F2529 (+)
503 4:21:18 Dupin Jessica F4044 (+)
504 4:21:18 Jones Jessica F2529 (+)
505 4:21:19 Fontenot Cody M3539 (+)
506 4:21:37 Anderson Kayla F4549 (+)
507 4:21:37 Bertucci Jeff M3034 (+)
508 4:21:39 Wininger Carl Taz CLYDE (+)
509 4:21:41 Rhodes Lauren F3034 (+)
510 4:21:41 Cope Ryan M4044 (+)
511 4:21:41 Harris Ryan M3034 (+)
512 4:21:42 Craig Tessa F3539 (+)
513 4:22:00 Dayton Tamara F4044 (+)
514 4:22:33 Plante Dirk M4549 (+)
515 4:22:33 Rourke Erin F3034 (+)
516 4:22:35 Mehn Kayla F2529 (+)
517 4:22:50 Vallin Daniel - (+)
518 4:22:54 Mcmillan Robert M3034 (+)
519 4:22:57 Choate Kelly F3539 (+)
520 4:23:20 Wright William M4044 (+)
521 4:24:11 Rodriguez Jairo M4549 (+)
522 4:24:21 Perlee Michelle F5054 (+)
523 4:24:29 Oakley Jenny F4044 (+)
524 4:24:39 Johnston Barrett CLYDE (+)
525 4:24:58 Le Vanessa F3539 (+)
526 4:24:59 Willhoite Wendy F4044 (+)
527 4:25:01 Cullen Jessica F2529 (+)
528 4:25:06 Lee Cody M3034 (+)
529 4:25:06 Martincic Andy M4044 (+)
530 4:25:06 Kahn Jeannine F4549 (+)
531 4:25:12 Lacroix Kurt M4044 (+)
532 4:25:18 Fontenot Nicole F3034 (+)
533 4:25:18 Boudreaux Brandi F3539 (+)
534 4:25:20 Huffman Thomas M4549 (+)
535 4:25:27 Marcel Lauren F3034 (+)
536 4:25:31 Davis Tripp M3034 (+)
537 4:25:31 Gibbs Joe M5559 (+)
538 4:25:39 Orpin Veta F4549 (+)
539 4:25:43 Jones Stanley M2024 (+)
540 4:25:54 Bourque Danielle F3034 (+)
541 4:26:13 Oubre Sheila F3539 (+)
542 4:26:19 Burbrink Heather F3034 (+)
543 4:26:25 Tingzon Marlon M2529 (+)
544 4:26:34 Bartosiewicz Cecelia F2529 (+)
545 4:26:35 Slattery Karen F6064 (+)
546 4:26:37 Recker Tony M6064 (+)
547 4:26:44 Morris Karen F4549 (+)
548 4:26:55 Contreras Julio M4549 (+)
549 4:26:58 Childress Ed M5054 (+)
550 4:27:03 Simpson Brian M4549 (+)
551 4:27:05 Zaunbrecher Josh M3539 (+)
552 4:27:07 Welch Jennifer F3539 (+)
553 4:27:18 Colob Robin - (+)
554 4:27:23 Mckinley Kristin F3539 (+)
555 4:27:28 Clem Karen F4549 (+)
556 4:27:31 Thompson Sharon F2529 (+)
557 4:27:31 Rhodes Michael M5054 (+)
558 4:27:35 Offutt David M5054 (+)
559 4:27:43 Pearson Steven CLYDE (+)
560 4:27:49 Hall Kevin M4549 (+)
561 4:28:10 Pilgrim Sara F2529 (+)
562 4:28:15 Dean Colette F5559 (+)
563 4:28:17 Nichols Zoe F2024 (+)
564 4:28:17 Duggan Adonica F3539 (+)
565 4:28:29 Ward Nely F2024 (+)
566 4:28:30 Hutchens Paul M4549 (+)
567 4:28:32 Abide Tammy F5054 (+)
568 4:28:37 Rech Ellis M2024 (+)
569 4:28:38 Rech Terri F5054 (+)
570 4:28:43 Altazin Lynn F6064 (+)
571 4:28:49 Parr Tim M4549 (+)
572 4:28:50 De Diego Armando M5559 (+)
573 4:28:51 Yount Paige F3539 (+)
574 4:29:00 Weathers Matt M3034 (+)
575 4:29:11 Schweinsberg Scott M5559 (+)
576 4:29:11 Schweinsberg Courtney F2024 (+)
577 4:29:17 Whitworth Pace Angeline F4549 (+)
578 4:29:18 Westin Ryan CLYDE (+)
579 4:29:22 Rubel Steffany F2529 (+)
580 4:29:33 Lonadier Jason M2529 (+)
581 4:29:33 Bordelon Jason M4044 (+)
582 4:29:36 Collins Sean M3034 (+)
583 4:29:37 Hill Walker M4044 (+)
584 4:29:56 Villalon Anahi F3539 (+)
585 4:30:10 Frith Greg M4044 (+)
586 4:30:13 Gauthreaux Kevin M4044 (+)
587 4:30:17 Mcmillen Eric M4549 (+)
588 4:31:01 Verrett Joey M3539 (+)
589 4:31:03 Brouillette Craig M5559 (+)
590 4:31:06 Morales Cerinda F3539 (+)
591 4:31:30 Turner Bridget F3539 (+)
592 4:31:31 Thompson Laura F5054 (+)
593 4:32:11 Nelson Joe Ray M4549 (+)
594 4:32:18 Yu Chang-hong F5054 (+)
595 4:32:28 Lea Mandy F3539 (+)
596 4:32:31 Owen Mary Beth F5559 (+)
597 4:32:45 Toscano Gregory M4044 (+)
598 4:32:50 Brooks Lauren F3034 (+)
599 4:32:53 Thompson Jeremy M3539 (+)
600 4:33:09 Holland Ashleigh F2529 (+)
601 4:33:15 Dunn Denise F2529 (+)
602 4:33:16 Pence Charles M3034 (+)
603 4:33:19 Foster Joshua M2529 (+)
604 4:33:24 Miller Anna F4044 (+)
605 4:33:24 Musthaler Nicole F2024 (+)
606 4:33:39 Fontenot Stephanie F2529 (+)
607 4:34:08 Timmons Elizabeth F5054 (+)
608 4:34:11 Morella Murray M3034 (+)
609 4:34:12 Macavinta Raymond M4549 (+)
610 4:34:22 Weger John M5559 (+)
611 4:34:32 Plate Laura F5054 (+)
612 4:34:32 Plate Bobby M4549 (+)
613 4:34:37 Mitchell Maria F4549 (+)
614 4:34:40 Lansberry Candace F5559 (+)
615 4:34:45 Hall Conner M2529 (+)
616 4:34:53 Tolley Cindy F5559 (+)
617 4:35:08 Abbitt Shilpa F4549 (+)
618 4:35:14 Haller Joseph M6064 (+)
619 4:35:22 Pittman Jefferson M4044 (+)
620 4:35:29 Rogge Staci F3034 (+)
621 4:35:36 Hughes Valerie F4044 (+)
622 4:35:39 Quick Cathi F5054 (+)
623 4:35:40 Hicks Patricia F4549 (+)
624 4:35:45 Weltman Brian M4044 (+)
625 4:35:50 Williamson Stephanie F2529 (+)
626 4:35:51 Bellow Taylor F2024 (+)
627 4:36:04 Degroot Nick M1619 (+)
628 4:36:05 Degroot Tim M5054 (+)
629 4:36:37 Robicheaux Stephen M5054 (+)
630 4:36:49 King Rebecca ATHENA (+)
631 4:36:50 Randazza Lauren F2529 (+)
632 4:36:57 Montgomery Bryan M5054 (+)
633 4:36:58 Taylor Aimee F3034 (+)
634 4:36:59 Geisler Monica F4044 (+)
635 4:37:24 Brister Kim F5054 (+)
636 4:37:30 Armstrong Devon M2024 (+)
637 4:37:47 Nihoris Crystal F3034 (+)
638 4:38:02 Laurent Brett M4549 (+)
639 4:38:05 Romaire John M4044 (+)
640 4:38:09 Harrison Sheryl F4549 (+)
641 4:38:36 Leese Gretchen F4044 (+)
642 4:38:44 Gilgurd Alana F2529 (+)
643 4:39:01 Stallings Tracy F3539 (+)
644 4:39:14 Aguirre Andrew M3539 (+)
645 4:39:14 Bloomquist David M5559 (+)
646 4:39:27 Schrader Dale M6064 (+)
647 4:39:28 Janis Shannon F3034 (+)
648 4:39:29 Knight Eric M4549 (+)
649 4:39:56 Houston Ryan M3034 (+)
650 4:40:04 Fiallos Ben M5054 (+)
651 4:40:14 Gabriel Jose Maria M5054 (+)
652 4:40:30 Nolan Carolyn F5054 (+)
653 4:40:30 Schaub Mary F4549 (+)
654 4:40:33 Meaux David M4549 (+)
655 4:40:35 Marz Krista F4044 (+)
656 4:40:40 Trussell Larry M5054 (+)
657 4:40:41 Eglin Richard M5054 (+)
658 4:40:45 Jester Stephen M2529 (+)
659 4:40:47 Stovall Litanya F4549 (+)
660 4:41:24 Brown Tyler M3539 (+)
661 4:41:45 Lin Talbott M4044 (+)
662 4:41:53 Thayer Lauren F2529 (+)
663 4:42:07 Wolf Audrey F3034 (+)
664 4:42:10 Skinner Joey F3034 (+)
665 4:42:17 Carney Thomas M5559 (+)
666 4:42:41 Fortin Brianna F3034 (+)
667 4:42:44 Sturdivant Phillip M3034 (+)
668 4:42:59 Selec Ginny F5054 (+)
669 4:43:03 Klein Jake M2024 (+)
670 4:43:03 Klein Nicole F3034 (+)
671 4:43:05 Plauche George F15UN (+)
672 4:43:10 Perroni Anthony M2529 (+)
673 4:43:12 Hunt Joel CLYDE (+)
674 4:43:25 Babb Lauren F3539 (+)
675 4:43:26 Smith Ron M4549 (+)
676 4:43:35 Dunn Shannon F2529 (+)
677 4:43:39 Causey Lisa F5559 (+)
678 4:43:54 Dimoulakis Sophia F3034 (+)
679 4:43:57 Giles Jimmy M5054 (+)
680 4:44:01 Arretteig Joseph M5559 (+)
681 4:44:12 Herson Matthew M3034 (+)
682 4:44:12 Herson Mackenzi F3034 (+)
683 4:44:24 Booth Scott M5054 (+)
684 4:44:31 Wilson Brian CLYDE (+)
685 4:44:50 Watts Rhonda F5054 (+)
686 4:44:55 Bales Ben M3034 (+)
687 4:44:57 Vu Theresa F5559 (+)
688 4:45:03 Burnum Colin CLYDE (+)
689 4:45:03 Monahan Shanna F3539 (+)
690 4:45:18 Marallo Emile M5054 (+)
691 4:45:25 Neumann Donna F4044 (+)
692 4:45:25 Abarca David M3539 (+)
693 4:45:29 Anderson Holly F3539 (+)
694 4:45:29 Newsom Rodney M4044 (+)
695 4:45:37 Waguespack Randall M4549 (+)
696 4:45:39 Thomas Allain F4044 (+)
697 4:45:55 Cassreino Toni F3539 (+)
698 4:46:05 Pippin Jenna F3539 (+)
699 4:46:05 Blakeney Bubba F15UN (+)
700 4:46:05 Wilson Quindell M3539 (+)
701 4:46:05 Kilpatrick Jason CLYDE (+)
702 4:46:15 Levy Lopez Hannah F2529 (+)
703 4:46:16 Rees Brian M2024 (+)
704 4:46:18 White Kevin M3539 (+)
705 4:46:23 Rothwell Keli F4044 (+)
706 4:46:29 Timmins Chris M3539 (+)
707 4:46:34 Thomas Casey F2024 (+)
708 4:46:35 Brown Gregory M4549 (+)
709 4:46:42 Armellini Armando M4549 (+)
710 4:47:03 Bourliea Regina F3034 (+)
711 4:47:05 Mckenna Ansleigh F3034 (+)
712 4:47:07 Van Houter Arthur M3034 (+)
713 4:47:09 Rousseau Carol F5054 (+)
714 4:47:17 Simon John M3034 (+)
715 4:47:18 Galiette Nicole F4044 (+)
716 4:47:19 Robinson Jennifer F4549 (+)
717 4:47:40 Polk Craig M3539 (+)
718 4:47:50 Moody Joseph CLYDE (+)
719 4:48:25 Fetters Mark M5054 (+)
720 4:48:45 Baynham Lori F5054 (+)
721 4:48:46 St. Romain Chloe F2024 (+)
722 4:48:58 Jingles Keith M4549 (+)
723 4:49:08 Ravenscroft Stephenie ATHENA (+)
724 4:49:11 Stewart Wendy F4044 (+)
725 4:49:31 Rice Megan F2024 (+)
726 4:49:33 Cavell Patrick M6064 (+)
727 4:49:37 Coates Christy F3539 (+)
728 4:49:44 Gibson Cindy F3539 (+)
729 4:49:45 Mclaughlin Heather F4549 (+)
730 4:49:54 Gillihan Clara F4044 (+)
731 4:49:56 Cobb Dot F4549 (+)
732 4:49:56 Schexnayder Marta F3539 (+)
733 4:50:05 Bland Kevin M2529 (+)
734 4:50:16 Williamson Joseph M3034 (+)
735 4:50:16 Hindin Emily F3034 (+)
736 4:50:24 Jones Audra F2529 (+)
737 4:50:25 Kennedy Chad M3034 (+)
738 4:50:28 Barnes Angela F3034 (+)
739 4:50:43 Rippas Dawn F4549 (+)
740 4:50:55 Sanson Karen F4549 (+)
741 4:51:07 Fowler Deana F4549 (+)
742 4:51:20 Pringle Robin F5054 (+)
743 4:51:24 Breaux Patrick M6064 (+)
744 4:51:25 Fontenot John M3539 (+)
745 4:51:34 Melvin Deborah F6064 (+)
746 4:51:38 Kelly Kathryn F5559 (+)
747 4:51:44 Brevelle Suzanne F4549 (+)
748 4:51:50 Albritton Monica F2529 (+)
749 4:52:03 Mcginity Andre ATHENA (+)
750 4:52:03 Mcginity Jamie M4044 (+)
751 4:52:08 Hart Michael M6064 (+)
752 4:52:11 Holden Brian M2529 (+)
753 4:52:25 Leblanc Sarah F4044 (+)
754 4:52:44 Miller Angie F5054 (+)
755 4:53:06 Winkler Jason M3034 (+)
756 4:53:07 Gravelle Diane F5054 (+)
757 4:53:14 Guimont Nadia F3034 (+)
758 4:53:17 Davis Laura F3539 (+)
759 4:53:22 Donatto Courtney F3034 (+)
760 4:53:28 Fiorito Nick M3539 (+)
761 4:53:29 Hodge Paul M3034 (+)
762 4:53:32 Chambers Lisa F5054 (+)
763 4:53:39 Macias James CLYDE (+)
764 4:53:40 Schrader Anne F6064 (+)
765 4:53:52 Sullivan Stacy F3034 (+)
766 4:53:54 Maas Laurie F5054 (+)
767 4:53:57 Jarratt Alan M6569 (+)
768 4:54:00 Bell Carolyn F5559 (+)
769 4:54:20 Baker Buddy M5559 (+)
770 4:54:20 Mcclain Jeanie F5559 (+)
771 4:54:32 Orr Missy F5054 (+)
772 4:54:50 Gibbs Amanda F2024 (+)
773 4:54:52 Strauss Bob M6064 (+)
774 4:54:55 Ahr Carey CLYDE (+)
775 4:54:58 Britt Daniel M2529 (+)
776 4:55:00 Maske-berka Angie F3539 (+)
777 4:55:05 Cross Vic M5559 (+)
778 4:55:41 Giese Delbert M6569 (+)
779 4:55:48 Baumann Cheryl F4549 (+)
780 4:56:01 Nihoris James M6064 (+)
781 4:56:03 Di Benedetto Andrea F5559 (+)
782 4:56:08 Taylor Deborah F4044 (+)
783 4:56:13 Neher Jennifer ATHENA (+)
784 4:56:17 Wilson Sean CLYDE (+)
785 4:56:23 Smith Julia F4549 (+)
786 4:56:42 Delouise Steven M2024 (+)
787 4:56:45 Shuey Aimee F4549 (+)
788 4:56:50 Simon Candice F3034 (+)
789 4:57:06 Istre Jill - (+)
790 4:57:12 Dwyer Kathleen ATHENA (+)
791 4:57:58 Kiger Mistie F4044 (+)
792 4:58:03 Davidson Alexis M6064 (+)
793 4:58:10 Broussard Kim M5559 (+)
794 4:58:17 Fairley Thomas M4549 (+)
795 4:58:59 Jones Brittany F2024 (+)
796 4:59:02 Dunaway Shelly F4549 (+)
797 4:59:02 Lewis C Steven M5054 (+)
798 4:59:03 May Jo F6569 (+)
799 4:59:09 Barre Brad M4044 (+)
800 4:59:10 Barre Amanda F3539 (+)
801 4:59:13 Waguespack Tim M4549 (+)
802 4:59:19 Waldrup Breanna F3034 (+)
803 4:59:26 Smith Julie F4549 (+)
804 4:59:33 Trahan Andrew M2024 (+)
805 5:00:05 Russo-mounger Aimee F4044 (+)
806 5:00:30 Delahaya Rick M5559 (+)
807 5:00:31 Thore Jodi F4549 (+)
808 5:00:43 Gerhardt Heidi F3539 (+)
809 5:00:44 Wood Kimberly F3539 (+)
810 5:01:02 Cole Shelley F2529 (+)
811 5:01:57 Oakley Camille F2529 (+)
812 5:02:03 Davis Emma F4549 (+)
813 5:02:03 Janus Deanna F4549 (+)
814 5:02:13 Hayes Sandra F4549 (+)
815 5:02:17 Dupin Ii James M3034 (+)
816 5:02:17 Dupin Joseph F15UN (+)
817 5:02:17 Shank Clyde M6569 (+)
818 5:02:23 Dupin Jesse M3034 (+)
819 5:02:34 Townsend Byron M3539 (+)
820 5:02:37 Sheff Bobbie F4044 (+)
821 5:02:51 Andrews Matthew M5054 (+)
822 5:02:59 Peterson Amber F2529 (+)
823 5:03:02 Cossette Elaine F4044 (+)
824 5:03:05 Goodall Camille F5559 (+)
825 5:03:08 Balser Jennifer F5054 (+)
826 5:03:13 Galjour Jasmine F3034 (+)
827 5:03:22 Stroud Crystal F3539 (+)
828 5:03:42 Sullivan Tim M4549 (+)
829 5:03:51 Larisey Julien F1619 (+)
830 5:03:51 Hebert Carson M1619 (+)
831 5:03:53 Welch Leslie F3539 (+)
832 5:03:54 Walker Roland M4044 (+)
833 5:04:11 Davis Angelique F4044 (+)
834 5:04:52 Austin Theresa F3539 (+)
835 5:05:34 Dullnig Cori F2529 (+)
836 5:05:34 Crockett Amyre F3034 (+)
837 5:05:40 Roy Courtney F3034 (+)
838 5:05:57 Vitale Dru M2529 (+)
839 5:06:08 Anderson Melanie F3034 (+)
840 5:06:20 Sotala Vemana Goutham M3034 (+)
841 5:07:00 Rodgers James M4549 (+)
842 5:07:01 Woodham Kate F3539 (+)
843 5:07:03 Christian Greg M3539 (+)
844 5:07:08 Castille Stephen M4549 (+)
845 5:07:29 Rodriguez Emily F2529 (+)
846 5:07:36 Haggard Rylee - (+)
847 5:07:47 Maldonado Jenny ATHENA (+)
848 5:07:56 Jones Howard M3034 (+)
849 5:07:57 Adcock Daurie F4044 (+)
850 5:07:57 Schafer Jessica F2024 (+)
851 5:08:11 Roy Lindsey F3034 (+)
852 5:08:17 Babin Terri F3539 (+)
853 5:08:24 Duplechin Aaron CLYDE (+)
854 5:08:48 Keeling Nick M75UP (+)
855 5:08:49 Beabout Karen F4549 (+)
856 5:08:54 Marullo Marcus M4044 (+)
857 5:08:55 Marullo Summer F3539 (+)
858 5:09:20 Martin Angela F3539 (+)
859 5:09:57 Cotton Lindsey F3034 (+)
860 5:10:26 Courtney Bill M5559 (+)
861 5:10:40 Tillman Melissa F4549 (+)
862 5:10:41 Rusnak Irene F5559 (+)
863 5:10:45 Gibbs Laura F3539 (+)
864 5:11:20 Picot Laurie ATHENA (+)
865 5:11:20 Foley Dawn F4549 (+)
866 5:11:21 Duran Jennifer F4044 (+)
867 5:11:22 Nazzarett Sergel F5559 (+)
868 5:11:31 O'looney Brenda F5054 (+)
869 5:12:01 Hammack Angela F4549 (+)
870 5:12:14 Nunes Brian M4044 (+)
871 5:12:19 Rossi Lynette F5054 (+)
872 5:12:31 Mcmasters Mariah F3539 (+)
873 5:12:42 Hoddle David M5054 (+)
874 5:12:46 Dunaway Rick M5054 (+)
875 5:12:52 Irwin John CLYDE (+)
876 5:13:12 Prince Mandy F4044 (+)
877 5:13:19 Oglesby Patrick CLYDE (+)
878 5:13:54 Landry Valerie F4549 (+)
879 5:13:57 Ardoin Anne Christian F1619 (+)
880 5:14:08 Hayes Laura F4044 (+)
881 5:14:11 Bourgeois Derek CLYDE (+)
882 5:14:11 Nowlin Kristin ATHENA (+)
883 5:14:15 Button Nicole F2529 (+)
884 5:14:30 Alvarado Hector CLYDE (+)
885 5:14:30 Rochester Dixie F3539 (+)
886 5:14:56 Lynch Robert M4044 (+)
887 5:15:08 Comeaux Cliff M4549 (+)
888 5:15:18 Binder Lauren F3034 (+)
889 5:15:18 Binder Michael M6569 (+)
890 5:15:28 Stafford Rhonda F5559 (+)
891 5:15:51 Friedemann Kelsey F2529 (+)
892 5:16:13 Desoto Heather F2529 (+)
893 5:16:16 Smith-vaniz Leigh F3034 (+)
894 5:16:36 Conaway Jeffrey CLYDE (+)
895 5:16:45 Wiggins Shawna F4044 (+)
896 5:16:55 Smith Melanie ATHENA (+)
897 5:17:17 Gary Chrystal F3034 (+)
898 5:17:29 Obney Chelsea F2529 (+)
899 5:17:31 Garten Carole F5054 (+)
900 5:17:32 Lawler Charles M5054 (+)
901 5:17:35 Carey Brian M4044 (+)
902 5:18:09 Salzer Marilyn F3539 (+)
903 5:18:09 Smith Meghan F3539 (+)
904 5:18:15 Massey Jennifer F3539 (+)
905 5:18:20 Smith Sarah F2529 (+)
906 5:18:21 Rainier Laura - (+)
907 5:18:27 Alexander Steve M4549 (+)
908 5:18:41 Parker Carolynn F5559 (+)
909 5:18:47 Wood Allie F2024 (+)
910 5:18:48 Misuraca Paige F1619 (+)
911 5:19:08 Gillis Angela ATHENA (+)
912 5:19:41 Courtney Greg M5559 (+)
913 5:19:42 Wheelock Barb F6064 (+)
914 5:19:56 Austero-macavinta Maria F5054 (+)
915 5:20:01 Thompson Anika F3539 (+)
916 5:20:10 Taylor Kelly F3539 (+)
917 5:20:11 Boudreaux Calli F3034 (+)
918 5:20:17 Bryant Ashley ATHENA (+)
919 5:20:32 Cash Melanie ATHENA (+)
920 5:20:52 Mcdaniels Josh M4044 (+)
921 5:21:20 Norwood Shana F3539 (+)
922 5:21:21 Matessino April F3034 (+)
923 5:21:32 Daigle Ken M5559 (+)
924 5:22:29 Hill Peggy F5054 (+)
925 5:22:33 Simpson Tara F4549 (+)
926 5:22:43 Thorson Susan F7074 (+)
927 5:22:44 Williams Thomas M4549 (+)
928 5:22:44 Williams Heidi ATHENA (+)
929 5:23:00 Walker Whitney F2529 (+)
930 5:23:19 Walston Halbert CLYDE (+)
931 5:23:25 Gonzales Stacey F4549 (+)
932 5:23:37 Booth Michele F4549 (+)
933 5:23:54 Johnson Kelsey F2024 (+)
934 5:24:01 Thompson Danyel F4044 (+)
935 5:24:43 Dozert Bo M2529 (+)
936 5:24:43 Gele Jean M3034 (+)
937 5:24:47 Zardus Derek M4044 (+)
938 5:24:55 Conner John M3539 (+)
939 5:25:52 Schade Jack M4549 (+)
940 5:25:53 Degroot Bonnie F4044 (+)
941 5:25:56 Romine John M3034 (+)
942 5:26:12 Warren Odell M5054 (+)
943 5:26:42 Hissey Krista F3034 (+)
944 5:26:49 O'carroll Julia F3539 (+)
945 5:26:51 Kenney-perez Edie F4044 (+)
946 5:26:52 Gondolfi Philip M4044 (+)
947 5:27:20 Mingo Katie F3034 (+)
948 5:27:22 Zuelch Jennifer F4044 (+)
949 5:27:25 Davison Stacey F2024 (+)
950 5:27:28 Hemenway Mary F4549 (+)
951 5:27:28 Olsen Mary F3034 (+)
952 5:27:33 Jensen Sarah F3034 (+)
953 5:28:40 Oneal Stacie F4044 (+)
954 5:29:24 Davis Chancey CLYDE (+)
955 5:29:37 Garrison Galen CLYDE (+)
956 5:30:14 Bourgeois Jon M4549 (+)
957 5:30:44 Vannatter-dorr Amy F5559 (+)
958 5:30:53 Mortillaro Joseph M4549 (+)
959 5:31:16 Hill Chuck M6569 (+)
960 5:31:57 Derrick Karen F5054 (+)
961 5:32:34 Cogan Jennifer F3539 (+)
962 5:32:35 Newman Brandi F3034 (+)
963 5:32:42 Busby Katie F4549 (+)
964 5:33:11 Angell Eric M2024 (+)
965 5:33:25 Sims Crystal F4044 (+)
966 5:33:54 Meinecke Barbara F3539 (+)
967 5:34:08 Russell Amy F3034 (+)
968 5:34:15 Ulm Matthew CLYDE (+)
969 5:34:53 Taylor Jenna F4044 (+)
970 5:34:54 Perez Rob CLYDE (+)
971 5:35:24 Nevo Ryiah F4044 (+)
972 5:35:29 Hope Frank M3539 (+)
973 5:35:33 Hauge Roger M75UP (+)
974 5:35:40 Schuler Steve M4044 (+)
975 5:35:42 Ballard Leslie F3034 (+)
976 5:35:51 Liljeberg Mattias M4549 (+)
977 5:36:10 Cieslak Suzanne F6569 (+)
978 5:36:20 Thronburg Angela F4044 (+)
979 5:36:39 Garrison Tony CLYDE (+)
980 5:36:49 York Jennifer F3034 (+)
981 5:37:03 Thronburg Joel M4044 (+)
982 5:37:18 Dietz Gretchen F2529 (+)
983 5:37:21 Regulacion Rhandy M3539 (+)
984 5:37:40 Gordon David M4044 (+)
985 5:37:44 Jochum Therese F7074 (+)
986 5:37:46 Blackwell Landon F15UN (+)
987 5:37:47 Barnaby Paul M6064 (+)
988 5:37:55 Schmidt Gina F3539 (+)
989 5:38:23 Story Clayton M3034 (+)
990 5:38:28 Wairimu Damaris F3034 (+)
991 5:38:29 Weeks Camille F5054 (+)
992 5:38:29 Kearns Mary F5054 (+)
993 5:38:54 Jimenez Sara F3539 (+)
994 5:39:32 Mcneil Christopher M2024 (+)
995 5:40:29 Webbb David CLYDE (+)
996 5:40:54 Clack Autumn F3034 (+)
997 5:40:58 Coleman Becky F4044 (+)
998 5:41:08 Lewis John Paul M5054 (+)
999 5:41:26 Wrinkle Tyson M3539 (+)
1000 5:41:27 Boudreaux Farrah F4044 (+)
1001 5:41:31 Prather Charlton M4044 (+)
1002 5:41:31 Prather Jana F3539 (+)
1003 5:41:50 Bridge Lauren F2529 (+)
1004 5:42:10 Perron Jennifer F3539 (+)
1005 5:42:15 Taylor Michael M4044 (+)
1006 5:42:23 Julien Vainthe CLYDE (+)
1007 5:42:43 Owens Jessica F2529 (+)
1008 5:43:00 Weeks Albert M5559 (+)
1009 5:43:18 Madueno Loraine F3539 (+)
1010 5:43:24 Payne Pamela F4044 (+)
1011 5:43:40 Cheatwood Twyla F3539 (+)
1012 5:44:06 Schaller Scott M3539 (+)
1013 5:44:07 Hazlewood Lindsey F3034 (+)
1014 5:44:07 Nash Dwight CLYDE (+)
1015 5:44:19 Cormier Carly - (+)
1016 5:45:22 Holloway Lambra F3539 (+)
1017 5:45:33 Jennings Mark CLYDE (+)
1018 5:45:34 Cook Gabriel F2529 (+)
1019 5:45:36 Cook Justin M3034 (+)
1020 5:45:44 Partridge Bonnie F6569 (+)
1021 5:46:56 Hardacre Wesley CLYDE (+)
1022 5:47:00 Mcdonald Todd CLYDE (+)
1023 5:47:17 Williamson Pam F3034 (+)
1024 5:47:47 Crompton Maria F3539 (+)
1025 5:49:05 Brown Jameira F3539 (+)
1026 5:49:07 Perry Kristin F3034 (+)
1027 5:49:18 Mahoney Hugh M5559 (+)
1028 5:49:31 Koban John M3539 (+)
1029 5:49:32 Saucier Ashley F3539 (+)
1030 5:49:47 Slocum Jim M6569 (+)
1031 5:49:51 Fremin Amanda F3034 (+)
1032 5:49:51 Shelton Kirstan F2024 (+)
1033 5:50:01 Cieslak Michael M6569 (+)
1034 5:50:51 Bigelow Barbara F6064 (+)
1035 5:51:42 Roberts Dolores F6064 (+)
1036 5:51:55 Darensbourg Sean CLYDE (+)
1037 5:52:03 Robertson Lauren F2529 (+)
1038 5:52:07 Wilkes Tina F4044 (+)
1039 5:53:11 Chin Seng Mon M7074 (+)
1040 5:53:15 Mahoney Barbara F3539 (+)
1041 5:53:29 Saba Katherine F5054 (+)
1042 5:53:41 Caillet David M6064 (+)
1043 5:54:01 Wells Sarah F2529 (+)
1044 5:55:23 Flowers Taylor F1619 (+)
1045 5:56:28 Liu Glenn M5054 (+)
1046 5:56:31 Nelson Jeffrey CLYDE (+)
1047 5:56:38 Sokolova Yuliya F5559 (+)
1048 5:56:45 Allbright Callie F2024 (+)
1049 5:56:45 Holladay Kate F2024 (+)
1050 5:56:55 Hollis Emily F3034 (+)
1051 5:58:03 Mckowen Amy F3034 (+)
1052 5:58:10 Pampell Randall M6064 (+)
1053 5:58:10 Rush Layna F4044 (+)
1054 5:58:36 Landry Terry M3539 (+)
1055 5:58:41 Borden Sally F3539 (+)
1056 5:58:41 Borden John M4044 (+)
1057 5:59:01 Cackett Marika ATHENA (+)
1058 5:59:19 St.pierre Michael M5054 (+)
1059 6:00:42 Keese Monica F4044 (+)
1060 6:00:45 Garrett Dannie M5054 (+)
1061 6:01:26 Fernandez Jessie F4044 (+)
1062 6:01:44 Adekunle Folashade F2024 (+)
1063 6:02:20 Mullaly Molly F3034 (+)
1064 6:03:28 Tyler Debbie F4044 (+)
1065 6:05:23 Trenner Lee Ellen F5054 (+)
1066 6:06:19 Smith Skip M5559 (+)
1067 6:09:35 Shuell Lindsay F3034 (+)
1068 6:10:51 Long Eathan M1619 (+)
1069 6:10:56 Long Anthony M4044 (+)
1070 6:11:05 Martinez Ashley F2024 (+)
1071 6:11:45 Adams Jessica F3034 (+)
1072 6:12:47 Guillory Maegen F1619 (+)
1073 6:14:10 Richardson Daphne ATHENA (+)
1074 6:14:18 Kohli Alfred M7074 (+)
1075 6:14:53 David Tim CLYDE (+)
1076 6:15:07 Lane Eric M5054 (+)
1077 6:15:08 Parker Jason CLYDE (+)
1078 6:15:13 Givens Danielle F2529 (+)
1079 6:15:13 Givens Greg M5559 (+)
1080 6:15:31 Gross Sheila F4549 (+)
1081 6:18:24 Vaughn David M3034 (+)
1082 6:18:24 Heiss Tina F4549 (+)
1083 6:18:25 Hayes Kelli F4044 (+)
1084 6:18:47 Brown Wayne M5054 (+)
1085 6:18:47 Smith Blane F15UN (+)
1086 6:19:10 Simmons Larry CLYDE (+)
1087 6:21:09 Wasicka Joseph M5054 (+)
1088 6:21:09 Wasicka Frances F5054 (+)
1089 6:21:26 Joseph Tarra ATHENA (+)
1090 6:22:12 Theall Cathy F5054 (+)
1091 6:22:33 Eickenhorst Katie F3034 (+)
1092 6:22:49 Checkai Dean M3539 (+)
1093 6:22:55 Brown Sherri F4549 (+)
1094 6:23:14 Lewis Alton M6569 (+)
1095 6:24:19 Thomas Tiffany F4044 (+)
1096 6:24:34 Smith Molly F2024 (+)
1097 6:27:25 Richard Cheryl F4549 (+)
1098 6:27:26 East Shery F2529 (+)
1099 6:28:25 Merritt Robert CLYDE (+)
1100 6:28:54 Obrien Loan F4044 (+)
1101 6:28:54 Dean Scott M3539 (+)
1102 6:28:57 Langley Chad CLYDE (+)
1103 6:29:57 Oufnac Christopher M3539 (+)
1104 6:31:00 Morgan Joseph CLYDE (+)
1105 6:31:27 Vides Allison F2529 (+)
1106 6:31:39 Moses Lance CLYDE (+)
1107 6:32:19 White Thantween F4044 (+)
1108 6:32:19 Whittington Amie F3034 (+)
1109 6:33:02 Mcmillan Rhonda F4549 (+)
1110 6:38:08 Nichols Linda F5559 (+)
1111 6:38:56 Johnson Thomas M3539 (+)
1112 6:40:02 Shahnasarian Edward M2529 (+)
1113 6:43:28 Leblanc Gerald CLYDE (+)
1114 6:43:49 Payne Fe F5054 (+)
1115 6:44:09 Hill Steve CLYDE (+)
1116 6:44:48 Tamez Deborah F4044 (+)
1117 6:46:08 Brewer Angela F3539 (+)
1118 6:46:09 Morgan Ashley F2024 (+)
1119 6:46:41 Ragsdale Jana F4549 (+)
1120 6:47:49 Poteet Sherry F5559 (+)
1121 6:48:07 Reso Rachel F2529 (+)
1122 6:50:09 Mast Ryan CLYDE (+)
1123 6:50:40 Sterling Georgette ATHENA (+)
1124 6:50:45 Rogers Kimberly F2529 (+)
1125 6:50:46 Branzaru Elena F4549 (+)
1126 6:50:47 Whisnant Sandra F5054 (+)
1127 6:51:04 Singh Daljit M6569 (+)
1128 6:51:21 Cole James M4549 (+)
1129 6:52:16 Kissner Elizabeth F2024 (+)
1130 6:55:06 Love John CLYDE (+)
1131 6:55:39 Mizell Tiffany F2529 (+)
1132 6:56:23 Scully Stuart CLYDE (+)
1133 6:57:10 Botting Melody F4044 (+)
1134 6:59:51 Olsen Taylor - (+)
1135 6:59:51 Olsen Amy F3539 (+)